Location: Augsburg
(48.3836°N, 10.8929°E)
Time: 17:59:10
(UTC+02:00)

ISS - Pass Details

Date: 23 May 2021
Orbit: 417 x 422 km, 51.6° (Epoch: 13 June)

Event Time Altitude Azimuth Distance (km) Brightness Sun altitude
Rises 23:46:22 0° 291° (WNW) 2,369 0.7 -18.2°
Reaches altitude 10° 23:48:28 10° 292° (WNW) 1,504 -0.4 -18.3°
Maximum altitude 23:51:51 89° 239° (WSW) 425 -3.9 -18.5°
Enters shadow 23:52:24 60° 113° (ESE) 486 -3.7 -18.5°
